Location: Baia de Cri?
(46.1667°N, 22.7167°E)
Time: 17:02:11
(UTC+00:00)

Tiangong - Pass Details

Date: 10 March 2026
Orbit: 376 x 385 km, 41.5° (Epoch: 18 April)

Event Time Altitude Azimuth Distance (km) Brightness Sun altitude
Rises 04:08:55 0° 208° (SSW) 2,253 1.5 -8.3°
Reaches altitude 10° 04:12:10 10° 171° (S) 1,409 0.8 -7.7°
Maximum altitude 04:13:13 11° 152° (SSE) 1,339 1.0 -7.5°
Drops below altitude 10° 04:14:15 10° 133° (SE) 1,414 1.4 -7.3°
Sets 04:17:32 0° 97° (E) 2,277 4.2 -6.8°
